period_start,C,m1,H,J0,J1,J2,J3,J4,J5,JA,JB,JC,JD,JJ,JK,JN,#
2015-02-17 00:00:57,0.18,6.82,0.00,23.23,27.60,30.72,4.81,28.43,1022.97,2028.00,1570.05,1929.79,2079.95,350.26,349.81,30.44,0000 0000 0000 0000 000000
2015-02-17 00:05:59,0.21,6.83,0.00,23.15,27.60,30.70,4.87,28.38,1022.96,2028.00,1569.03,1929.01,2079.04,350.28,349.95,30.47,0000 0000 0000 0000 000000
2015-02-17 00:11:00,0.24,6.83,0.00,23.25,27.59,30.57,4.93,28.39,1022.96,2028.01,1567.97,1928.19,2078.21,350.84,350.31,30.50,0000 0000 0000 0000 000000
2015-02-17 00:16:01,0.20,6.84,0.00,23.22,27.57,30.40,4.78,28.54,1022.96,2028.02,1567.04,1927.63,2077.56,349.31,348.85,30.53,0000 0000 0000 0000 000000
2015-02-17 00:21:03,0.16,6.84,0.00,22.96,27.56,30.25,4.83,28.61,1022.96,2028.03,1566.13,1926.94,2076.81,349.78,349.68,30.56,0000 0000 0000 0000 000000
2015-02-17 00:26:04,0.22,6.85,0.00,22.90,27.55,30.24,4.84,28.55,1022.97,2028.03,1565.31,1926.10,2075.93,349.78,349.81,30.59,0000 0000 0000 0000 000000
2015-02-17 00:31:06,0.23,6.86,0.00,22.92,27.55,30.21,4.86,28.45,1022.98,2028.00,1564.40,1925.31,2075.04,350.10,350.14,30.62,0000 0000 0000 0000 000000
2015-02-17 00:36:07,0.24,6.86,0.00,23.22,27.55,30.28,4.82,28.54,1023.16,2028.00,1563.32,1924.46,2074.10,350.23,349.92,30.65,0000 0000 0000 0000 000000
2015-02-17 00:41:08,0.21,6.87,0.00,23.74,27.56,30.39,4.83,28.52,1023.43,2028.00,1562.54,1923.67,2073.20,349.81,349.03,30.67,0000 0000 0000 0000 000000
2015-02-17 00:46:10,0.19,6.87,0.00,23.66,27.57,30.48,4.78,28.37,1023.44,2028.00,1561.58,1922.92,2072.32,349.42,348.75,30.70,0000 0000 0000 0000 000000
2015-02-17 00:51:11,0.26,6.88,0.00,23.30,27.59,30.67,4.77,28.38,1023.45,2028.00,1560.40,1922.02,2071.39,349.97,349.25,30.73,0000 0000 0000 0000 000000
2015-02-17 00:56:12,0.24,6.89,0.00,23.16,27.59,30.67,4.82,28.41,1023.45,2028.00,1559.14,1921.15,2070.49,350.01,349.88,30.76,0000 0000 0000 0000 000000
2015-02-17 01:01:14,0.20,6.90,0.00,23.22,27.57,30.59,4.79,28.49,1023.42,2028.00,1558.18,1920.49,2069.80,349.72,349.47,30.79,0000 0000 0000 0000 000000
2015-02-17 01:06:15,0.14,6.90,0.00,23.20,27.56,30.40,4.79,28.38,1023.45,2028.00,1557.29,1919.97,2069.04,350.03,349.92,30.82,0000 0000 0000 0000 000000
2015-02-17 01:11:16,0.23,6.91,0.00,22.98,27.55,30.29,4.88,28.56,1023.45,2028.03,1556.50,1919.18,2068.25,350.19,350.49,30.85,0000 0000 0000 0000 000000
2015-02-17 01:16:17,0.24,6.91,0.00,22.86,27.55,30.19,4.79,28.63,1023.45,2028.02,1555.48,1918.43,2067.37,349.55,349.74,30.88,0000 0000 0000 0000 000000
2015-02-17 01:21:19,0.21,6.92,0.00,22.86,27.54,30.21,4.85,28.53,1023.40,2028.01,1554.53,1917.67,2066.57,350.25,350.24,30.91,0000 0000 0000 0000 000000
2015-02-17 01:26:20,0.20,6.93,0.00,23.03,27.55,30.28,4.88,28.56,1023.18,2028.01,1553.57,1916.86,2065.68,350.36,350.19,30.94,0000 0000 0000 0000 000000
2015-02-17 01:31:21,0.20,6.93,0.00,23.66,27.55,30.35,4.75,28.48,1023.05,2028.00,1552.61,1916.02,2064.77,349.80,349.07,30.97,0000 0000 0000 0000 000000
2015-02-17 01:36:22,0.25,6.94,0.00,23.73,27.57,30.38,4.79,28.47,1023.20,2028.00,1551.50,1915.14,2063.84,350.02,349.06,31.00,0000 0000 0000 0000 000000
2015-02-17 01:41:23,0.25,6.95,0.00,23.39,27.57,30.62,4.84,28.55,1023.11,2028.00,1550.37,1914.27,2062.94,350.35,349.66,31.03,0000 0000 0000 0000 000000
2015-02-17 01:46:24,0.20,6.95,0.00,23.14,27.57,30.69,4.82,28.47,1023.11,2028.00,1549.51,1913.62,2062.08,350.27,350.07,31.06,0000 0000 0000 0000 000000
2015-02-17 01:51:26,0.20,6.96,0.00,23.14,27.57,30.59,4.81,28.59,1023.07,2028.00,1548.49,1912.92,2061.25,350.66,350.24,31.08,0000 0000 0000 0000 000000
2015-02-17 01:56:27,0.22,6.97,0.00,23.22,27.57,30.47,4.87,28.55,1023.12,2028.00,1547.57,1912.08,2060.52,350.40,350.04,31.11,0000 0000 0000 0000 000000
2015-02-17 02:01:29,0.17,6.97,0.00,23.10,27.55,30.37,4.81,28.57,1023.06,2028.01,1546.73,1911.52,2059.83,349.91,349.65,31.14,0000 0000 0000 0000 000000
2015-02-17 02:06:30,0.15,6.98,0.00,22.95,27.55,30.28,4.75,28.61,1023.18,2028.00,1545.91,1910.81,2059.00,349.82,349.79,31.17,0000 0000 0000 0000 000000
2015-02-17 02:11:31,0.21,6.98,0.00,22.95,27.55,30.20,4.78,28.44,1023.28,2028.00,1544.98,1910.01,2058.11,349.48,349.55,31.20,0000 0000 0000 0000 000000
2015-02-17 02:16:33,0.24,6.99,0.00,23.17,27.55,30.28,4.88,28.52,1023.43,2028.00,1544.07,1909.14,2057.29,350.32,350.22,31.23,0000 0000 0000 0000 000000
2015-02-17 02:21:34,0.22,7.00,0.00,23.71,27.55,30.35,4.83,28.50,1023.45,2028.00,1543.25,1908.49,2056.53,350.23,349.41,31.26,0000 0000 0000 0000 000000
2015-02-17 02:26:35,0.24,7.00,0.00,23.65,27.56,30.43,4.87,28.43,1023.45,2028.00,1542.18,1907.61,2055.55,350.48,349.96,31.29,0000 0000 0000 0000 000000
2015-02-17 02:31:36,0.20,7.01,0.00,23.29,27.57,30.68,4.79,28.44,1023.45,2028.00,1541.03,1906.83,2054.69,349.90,349.68,31.32,0000 0000 0000 0000 000000
2015-02-17 02:36:38,0.19,7.02,0.00,23.15,27.57,30.71,4.85,28.44,1023.47,2027.99,1540.02,1906.05,2053.96,350.53,350.46,31.35,0000 0000 0000 0000 000000
2015-02-17 02:41:39,0.24,7.02,0.00,23.21,27.57,30.59,4.92,28.42,1023.52,2027.99,1539.10,1905.28,2053.10,350.26,349.94,31.38,0000 0000 0000 0000 000000
2015-02-17 02:46:40,0.15,7.03,0.00,23.27,27.55,30.43,4.86,28.48,1023.49,2027.99,1538.44,1904.87,2052.44,350.24,350.04,31.41,0000 0000 0000 0000 000000
2015-02-17 02:51:42,0.17,7.03,0.00,23.05,27.55,30.35,4.90,28.61,1023.45,2028.00,1537.71,1904.06,2051.77,350.03,350.11,31.44,0000 0000 0000 0000 000000
2015-02-17 02:56:43,0.26,7.04,0.00,22.88,27.55,30.28,4.75,28.69,1023.46,2028.00,1536.58,1903.31,2050.90,349.25,349.48,31.47,0000 0000 0000 0000 000000
2015-02-17 03:01:43,0.22,7.04,0.00,22.82,27.54,30.20,4.82,28.55,1023.47,2028.00,1535.66,1902.50,2050.02,349.97,350.18,31.49,0000 0000 0000 0000 000000
2015-02-17 03:06:45,0.21,7.05,0.00,23.05,27.55,30.28,4.84,28.65,1023.48,2028.00,1534.77,1901.69,2049.11,349.69,349.69,31.52,0000 0000 0000 0000 000000
2015-02-17 03:11:46,0.17,7.06,0.00,23.69,27.55,30.33,4.80,28.61,1023.65,2027.99,1533.92,1900.89,2048.18,349.86,349.26,31.55,0000 0000 0000 0000 000000
2015-02-17 03:16:47,0.25,7.07,0.00,23.65,27.57,30.36,4.88,28.46,1023.74,2027.99,1532.88,1900.06,2047.19,350.23,349.63,31.58,0000 0000 0000 0000 000000
2015-02-17 03:21:49,0.19,7.07,0.00,23.35,27.59,30.64,4.87,28.53,1023.59,2027.97,1531.98,1899.21,2046.74,349.90,349.50,31.61,0000 0000 0000 0000 000000
2015-02-17 03:26:50,0.20,7.08,0.00,23.16,27.60,30.73,4.80,28.42,1023.51,2027.96,1531.05,1898.55,2045.97,349.58,349.47,31.64,0000 0000 0000 0000 000000
2015-02-17 03:31:51,0.18,7.08,0.00,23.22,27.59,30.67,4.80,28.48,1023.47,2027.99,1530.09,1897.97,2045.11,350.37,350.12,31.67,0000 0000 0000 0000 000000
2015-02-17 03:36:52,0.24,7.09,0.00,23.29,27.57,30.53,4.78,28.50,1023.45,2027.99,1529.29,1897.15,2044.40,350.31,350.03,31.70,0000 0000 0000 0000 000000
2015-02-17 03:41:53,0.22,7.09,0.00,23.11,27.56,30.41,4.77,28.52,1023.46,2027.98,1528.34,1896.45,2043.71,349.94,349.87,31.73,0000 0000 0000 0000 000000
2015-02-17 03:46:55,0.12,7.10,0.00,22.90,27.55,30.27,4.84,28.61,1023.49,2027.99,1527.65,1895.89,2042.95,350.01,350.15,31.76,0000 0000 0000 0000 000000
2015-02-17 03:51:56,0.26,7.11,0.00,22.83,27.55,30.25,4.87,28.62,1023.48,2027.99,1526.47,1895.04,2042.06,350.05,350.26,31.79,0000 0000 0000 0000 000000
2015-02-17 03:56:57,0.24,7.11,0.00,22.95,27.55,30.25,4.87,28.57,1023.47,2027.99,1525.54,1894.17,2041.21,349.90,349.82,31.82,0000 0000 0000 0000 000000
2015-02-17 04:01:58,0.24,7.12,0.00,23.53,27.56,30.37,4.83,28.57,1023.47,2027.98,1524.43,1893.44,2040.37,349.71,348.99,31.85,0000 0000 0000 0000 000000
2015-02-17 04:07:00,0.17,7.13,0.00,23.74,27.57,30.36,4.74,28.41,1023.50,2027.99,1523.60,1892.76,2039.66,349.51,348.65,31.87,0000 0000 0000 0000 000000
2015-02-17 04:12:01,0.24,7.13,0.00,23.48,27.60,30.56,4.84,28.44,1023.67,2027.98,1522.49,1891.94,2038.67,350.53,350.02,31.90,0000 0000 0000 0000 000000
2015-02-17 04:17:02,0.16,7.14,0.00,23.20,27.60,30.72,4.77,28.33,1023.83,2027.98,1521.81,1891.10,2037.95,349.85,349.77,31.93,0000 0000 0000 0000 000000
2015-02-17 04:22:03,0.22,7.14,0.00,23.17,27.60,30.71,4.80,28.34,1023.82,2027.96,1520.90,1890.49,2037.10,350.10,350.04,31.96,0000 0000 0000 0000 000000
2015-02-17 04:27:04,0.16,7.15,0.00,23.25,27.59,30.51,4.88,28.34,1023.85,2027.98,1520.01,1889.94,2036.34,350.06,349.92,31.99,0000 0000 0000 0000 000000
2015-02-17 04:32:06,0.20,7.16,0.00,23.11,27.57,30.37,4.80,28.43,1023.92,2027.99,1519.22,1889.14,2035.80,350.04,349.93,32.02,0000 0000 0000 0000 000000
2015-02-17 04:37:07,0.22,7.16,0.00,22.92,27.56,30.27,4.81,28.53,1023.86,2027.99,1518.16,1888.55,2035.01,350.08,350.45,32.05,0000 0000 0000 0000 000000
2015-02-17 04:42:08,0.19,7.17,0.00,22.83,27.55,30.24,4.83,28.68,1023.88,2027.99,1517.22,1887.91,2034.12,349.71,350.13,32.08,0000 0000 0000 0000 000000
2015-02-17 04:47:09,0.22,7.18,0.00,22.89,27.55,30.24,4.87,28.54,1023.83,2027.99,1516.53,1887.05,2033.35,350.28,350.52,32.11,0000 0000 0000 0000 000000
2015-02-17 04:52:11,0.24,7.18,0.00,23.55,27.56,30.36,4.85,28.57,1023.89,2027.97,1515.50,1886.11,2032.48,350.13,349.54,32.14,0000 0000 0000 0000 000000
2015-02-17 04:57:12,0.23,7.19,0.00,23.73,27.57,30.37,4.81,28.52,1023.93,2027.98,1514.53,1885.33,2031.68,350.14,349.47,32.17,0000 0000 0000 0000 000000
2015-02-17 05:02:13,0.19,7.19,0.00,23.42,27.60,30.58,4.84,28.55,1023.94,2027.89,1513.54,1884.61,2030.73,350.21,349.89,32.20,0000 0000 0000 0000 000000
2015-02-17 05:07:15,0.19,7.20,0.00,23.17,27.60,30.73,4.84,28.42,1023.94,2027.87,1512.45,1883.91,2029.97,350.31,349.98,32.23,0000 0000 0000 0000 000000
2015-02-17 05:12:16,0.24,7.21,0.00,23.18,27.60,30.68,4.81,28.48,1023.88,2027.95,1511.56,1883.10,2029.14,349.88,349.63,32.26,0000 0000 0000 0000 000000
2015-02-17 05:17:18,0.23,7.21,0.00,23.28,27.58,30.51,4.83,28.38,1023.85,2027.96,1510.65,1882.41,2028.38,350.19,350.04,32.29,0000 0000 0000 0000 000000
2015-02-17 05:22:19,0.14,7.22,0.00,23.13,27.57,30.38,4.80,28.49,1023.68,2027.99,1509.80,1881.86,2027.81,350.22,350.00,32.31,0000 0000 0000 0000 000000
2015-02-17 05:27:20,0.18,7.23,0.00,22.95,27.57,30.29,4.77,28.47,1023.72,2027.99,1509.00,1881.07,2027.02,349.62,349.72,32.34,0000 0000 0000 0000 000000
2015-02-17 05:32:21,0.24,7.23,0.00,22.86,27.57,30.24,4.85,28.63,1023.61,2027.99,1508.12,1880.44,2026.18,349.21,349.66,32.37,0000 0000 0000 0000 000000
2015-02-17 05:37:22,0.20,7.24,0.00,22.99,27.57,30.30,4.84,28.57,1023.67,2027.98,1507.20,1879.77,2025.35,350.78,350.89,32.40,0000 0000 0000 0000 000000
2015-02-17 05:42:24,0.20,7.24,0.00,23.60,27.57,30.36,4.84,28.56,1023.83,2027.96,1506.46,1878.98,2024.51,350.07,349.51,32.43,0000 0000 0000 0000 000000
2015-02-17 05:47:25,0.22,7.25,0.00,23.69,27.59,30.41,4.84,28.42,1023.92,2027.88,1505.44,1878.10,2023.74,350.29,349.70,32.46,0000 0000 0000 0000 000000
2015-02-17 05:52:26,0.21,7.26,0.00,23.39,27.60,30.65,4.74,28.40,1023.94,2027.72,1504.40,1877.26,2022.90,349.37,349.16,32.49,0000 0000 0000 0000 000000
2015-02-17 05:57:28,0.22,7.26,0.00,23.16,27.60,30.74,4.82,28.35,1023.94,2027.90,1503.61,1876.74,2022.06,349.65,349.75,32.52,0000 0000 0000 0000 000000
2015-02-17 06:02:29,0.21,7.27,0.00,23.21,27.60,30.63,4.81,28.43,1023.94,2027.89,1502.57,1876.02,2021.27,349.79,349.78,32.55,0000 0000 0000 0000 000000
2015-02-17 06:07:30,0.21,7.28,0.00,23.28,27.60,30.52,4.84,28.39,1023.94,2027.95,1501.76,1875.28,2020.65,350.24,350.07,32.58,0000 0000 0000 0000 000000
2015-02-17 06:12:32,0.23,7.28,0.00,23.09,27.58,30.40,4.83,28.57,1023.94,2027.99,1500.69,1874.62,2019.95,350.28,350.27,32.61,0000 0000 0000 0000 000000
2015-02-17 06:17:33,0.13,7.29,0.00,22.90,27.57,30.27,4.79,28.60,1023.94,2027.99,1499.95,1874.00,2019.11,349.52,349.90,32.64,0000 0000 0000 0000 000000
2015-02-17 06:22:34,0.24,7.29,0.00,22.84,27.57,30.27,4.82,28.62,1023.94,2027.99,1499.07,1873.27,2018.44,349.57,349.64,32.67,0000 0000 0000 0000 000000
2015-02-17 06:27:36,0.22,7.30,0.00,22.89,27.57,30.31,4.78,28.65,1023.94,2027.98,1498.11,1872.54,2017.62,349.96,350.27,32.70,0000 0000 0000 0000 000000
2015-02-17 06:32:37,0.16,7.31,0.00,23.44,27.58,30.38,4.82,28.53,1023.94,2027.95,1497.37,1871.87,2016.78,349.66,349.26,32.72,0000 0000 0000 0000 000000
2015-02-17 06:37:38,0.21,7.31,0.00,23.79,27.60,30.35,4.86,28.57,1023.95,2027.90,1496.45,1870.97,2015.96,350.09,349.41,32.75,0000 0000 0000 0000 000000
2015-02-17 06:42:39,0.17,7.32,0.00,23.54,27.62,30.58,4.82,28.53,1023.97,2027.55,1495.21,1870.07,2015.02,350.18,349.65,32.78,0000 0000 0000 0000 000000
2015-02-17 06:47:41,0.24,7.32,0.00,23.20,27.62,30.74,4.80,28.41,1024.06,2027.51,1494.20,1869.30,2014.10,350.43,350.34,32.81,0000 0000 0000 0000 000000
2015-02-17 06:52:42,0.22,7.33,0.00,23.17,27.62,30.68,4.85,28.50,1024.02,2027.56,1493.25,1868.69,2013.37,350.26,350.28,32.84,0000 0000 0000 0000 000000
2015-02-17 06:57:43,0.24,7.34,0.00,23.23,27.62,30.55,4.82,28.41,1024.14,2027.73,1492.47,1868.03,2012.65,349.99,350.06,32.87,0000 0000 0000 0000 000000
2015-02-17 07:02:44,0.13,7.34,0.00,23.11,27.60,30.43,4.89,28.50,1024.12,2027.93,1492.01,1867.70,2012.02,349.77,350.01,32.90,0000 0000 0000 0000 000000
2015-02-17 07:07:45,0.20,7.35,0.00,22.92,27.60,30.32,4.87,28.56,1024.06,2027.97,1491.35,1867.00,2011.42,349.51,350.06,32.93,0000 0000 0000 0000 000000
2015-02-17 07:12:46,0.23,7.35,0.00,22.83,27.59,30.29,4.83,28.52,1024.09,2027.98,1490.59,1866.19,2010.70,349.47,349.82,32.96,0000 0000 0000 0000 000000
2015-02-17 07:17:48,0.12,7.36,0.00,22.85,27.58,30.24,4.82,28.63,1024.31,2027.85,1489.80,1865.60,2009.85,349.66,350.14,32.99,0000 0000 0000 0000 000000
2015-02-17 07:22:49,0.12,7.36,0.00,23.35,27.59,30.36,4.80,28.59,1024.37,2027.63,1488.93,1864.90,2009.03,349.89,349.90,33.02,0000 0000 0000 0000 000000
2015-02-17 07:27:50,0.24,7.37,0.00,23.73,27.60,30.40,4.82,28.47,1024.30,2027.48,1487.91,1864.07,2008.14,350.51,349.86,33.05,0000 0000 0000 0000 000000
2015-02-17 07:32:51,0.20,7.37,0.00,23.54,27.61,30.57,4.82,28.57,1024.32,2027.33,1486.98,1863.33,2007.45,349.90,349.48,33.08,0000 0000 0000 0000 000000
2015-02-17 07:37:53,0.23,7.38,0.00,23.22,27.62,30.75,4.86,28.39,1024.28,2027.11,1485.84,1862.55,2006.61,349.89,349.93,33.11,0000 0000 0000 0000 000000
2015-02-17 07:42:53,0.20,7.39,0.00,23.17,27.62,30.73,4.79,28.38,1024.40,2027.12,1484.71,1861.87,2005.87,350.10,350.03,33.13,0000 0000 0000 0000 000000
2015-02-17 07:47:55,0.29,7.40,0.00,23.25,27.60,30.55,4.80,28.51,1024.34,2027.54,1483.95,1861.08,2005.06,349.75,350.12,33.16,0000 0000 0000 0000 000000
2015-02-17 07:52:56,0.24,7.40,0.00,23.20,27.59,30.43,4.82,28.52,1024.26,2027.92,1483.19,1860.76,2004.61,350.07,350.00,33.19,0000 0000 0000 0000 000000
2015-02-17 07:57:58,0.16,7.41,0.00,22.94,27.57,30.28,4.83,28.69,1024.32,2027.96,1482.49,1860.03,2003.93,350.10,350.45,33.22,0000 0000 0000 0000 000000
2015-02-17 08:02:59,0.20,7.41,0.00,22.77,27.56,30.14,4.84,28.64,1024.40,2027.90,1481.79,1859.38,2003.11,349.66,350.39,33.25,0000 0000 0000 0000 000000
2015-02-17 08:08:00,0.23,7.42,0.00,22.81,27.55,30.20,4.83,28.63,1024.43,2027.89,1480.81,1858.73,2002.35,349.77,350.69,33.28,0000 0000 0000 0000 000000
2015-02-17 08:13:01,0.13,7.43,0.00,22.89,27.55,30.16,4.90,28.71,1024.43,2027.93,1480.03,1858.02,2001.77,350.79,351.30,33.31,0000 0000 0000 0000 000000
2015-02-17 08:18:03,0.06,7.43,0.00,23.52,27.57,30.40,4.79,28.52,1024.43,2027.66,1479.81,1857.43,2000.99,349.26,349.04,33.34,0000 0000 0000 0000 000000
2015-02-17 08:23:04,0.12,7.43,0.00,23.64,27.57,30.48,4.79,28.54,1024.43,2027.20,1478.93,1856.84,2000.17,349.51,349.06,33.37,0000 0000 0000 0000 000000
2015-02-17 08:28:05,0.19,7.44,0.00,23.34,27.59,30.65,4.83,28.49,1024.43,2027.10,1478.04,1856.06,1999.52,349.88,349.78,33.40,0000 0000 0000 0000 000000
2015-02-17 08:33:06,0.18,7.44,0.00,23.10,27.60,30.72,4.81,28.47,1024.43,2027.03,1477.35,1855.62,1998.90,349.90,350.11,33.43,0000 0000 0000 0000 000000
2015-02-17 08:38:08,0.18,7.45,0.00,23.12,27.58,30.62,4.86,28.46,1024.43,2027.03,1476.41,1855.02,1998.08,350.11,350.33,33.46,0000 0000 0000 0000 000000
2015-02-17 08:43:09,0.26,7.45,0.00,23.20,27.57,30.50,4.79,28.43,1024.43,2027.15,1475.49,1854.39,1997.38,349.65,349.80,33.49,0000 0000 0000 0000 000000
2015-02-17 08:48:10,0.19,7.46,0.00,23.07,27.55,30.35,4.83,28.40,1024.43,2027.63,1474.83,1854.00,1996.99,350.58,350.70,33.52,0000 0000 0000 0000 000000
2015-02-17 08:53:12,0.28,7.47,0.00,22.85,27.55,30.25,4.86,28.70,1024.43,2027.89,1474.00,1853.32,1996.28,349.77,350.16,33.54,0000 0000 0000 0000 000000
2015-02-17 08:58:13,0.15,7.47,0.00,22.79,27.53,30.19,4.80,28.75,1024.44,2027.84,1473.11,1852.82,1995.65,349.25,349.99,33.57,0000 0000 0000 0000 000000
2015-02-17 09:03:14,0.20,7.48,0.00,22.77,27.52,30.17,4.85,28.68,1024.43,2027.85,1472.30,1852.04,1994.99,349.81,350.47,33.60,0000 0000 0000 0000 000000
2015-02-17 09:08:15,0.23,7.48,0.00,23.01,27.53,30.27,4.80,28.68,1024.43,2027.84,1471.58,1851.40,1994.15,349.52,349.90,33.63,0000 0000 0000 0000 000000
2015-02-17 09:13:16,0.09,7.49,0.00,23.57,27.55,30.37,4.85,28.52,1024.44,2027.68,1470.94,1850.85,1993.43,350.10,349.67,33.66,0000 0000 0000 0000 000000
2015-02-17 09:18:18,0.15,7.49,0.00,23.54,27.56,30.50,4.79,28.43,1024.46,2027.60,1470.11,1850.05,1992.82,349.69,349.53,33.69,0000 0000 0000 0000 000000
2015-02-17 09:23:19,0.16,7.50,0.00,23.21,27.57,30.70,4.83,28.52,1024.50,2027.38,1469.40,1849.46,1992.05,350.18,350.54,33.72,0000 0000 0000 0000 000000
2015-02-17 09:28:20,0.19,7.50,0.00,23.07,27.57,30.71,4.87,28.63,1024.47,2027.30,1468.46,1848.94,1991.36,349.86,350.25,33.75,0000 0000 0000 0000 000000
2015-02-17 09:33:22,0.25,7.51,0.00,23.13,27.57,30.58,4.87,28.64,1024.46,2027.66,1467.79,1848.13,1990.85,350.32,350.51,33.78,0000 0000 0000 0000 000000
2015-02-17 09:38:23,0.18,7.52,0.00,23.16,27.55,30.43,4.90,28.65,1024.50,2027.91,1467.03,1847.90,1990.06,350.24,350.48,33.81,0000 0000 0000 0000 000000
2015-02-17 09:43:24,0.23,7.52,0.00,22.90,27.55,30.30,4.85,28.63,1024.55,2027.96,1466.24,1847.12,1989.68,350.11,350.87,33.84,0000 0000 0000 0000 000000
2015-02-17 09:48:26,0.19,7.53,0.00,22.75,27.54,30.21,4.87,28.55,1024.57,2027.97,1465.51,1846.62,1988.98,349.82,350.47,33.87,0000 0000 0000 0000 000000
2015-02-17 09:53:27,0.17,7.53,0.00,22.71,27.52,30.19,4.86,28.67,1024.53,2027.96,1464.70,1845.97,1988.17,350.00,350.92,33.90,0000 0000 0000 0000 000000
2015-02-17 09:58:28,0.20,7.54,0.00,22.74,27.53,30.18,4.89,28.63,1024.54,2027.96,1463.97,1845.13,1987.50,350.08,350.78,33.93,0000 0000 0000 0000 000000
2015-02-17 10:03:29,0.13,7.54,0.00,23.29,27.54,30.34,4.82,28.65,1024.62,2027.80,1463.18,1844.65,1986.84,349.63,350.04,33.96,0000 0000 0000 0000 000000
2015-02-17 10:08:31,0.17,7.55,0.00,23.59,27.55,30.41,4.77,28.50,1024.77,2027.57,1462.37,1843.99,1986.03,349.61,349.56,33.98,0000 0000 0000 0000 000000
2015-02-17 10:13:32,0.15,7.55,0.00,23.30,27.57,30.60,4.79,28.52,1024.61,2027.39,1461.62,1843.15,1985.23,349.93,349.92,34.01,0000 0000 0000 0000 000000
2015-02-17 10:18:33,0.13,7.56,0.00,23.03,27.57,30.70,4.83,28.54,1024.55,2027.29,1460.86,1842.76,1984.70,350.21,350.70,34.04,0000 0000 0000 0000 000000
2015-02-17 10:23:35,0.19,7.56,0.00,23.05,27.57,30.63,4.87,28.54,1024.60,2027.27,1460.05,1842.03,1984.02,350.08,350.23,34.07,0000 0000 0000 0000 000000
2015-02-17 10:28:36,0.27,7.57,0.00,23.13,27.55,30.49,4.77,28.49,1024.47,2027.44,1459.44,1841.63,1983.53,349.80,349.96,34.10,0000 0000 0000 0000 000000
2015-02-17 10:33:37,0.19,7.58,0.00,22.96,27.55,30.33,4.86,28.56,1024.46,2027.77,1458.70,1841.01,1983.00,349.88,350.28,34.13,0000 0000 0000 0000 000000
2015-02-17 10:38:38,0.25,7.58,0.00,22.75,27.53,30.24,4.83,28.51,1024.46,2027.85,1457.67,1840.29,1982.32,349.79,350.51,34.16,0000 0000 0000 0000 000000
2015-02-17 10:43:40,0.14,7.59,0.00,22.65,27.52,30.17,4.85,28.72,1024.44,2027.80,1456.87,1839.76,1981.66,349.99,350.62,34.19,0000 0000 0000 0000 000000
2015-02-17 10:48:41,0.21,7.59,0.00,22.67,27.52,30.11,4.90,28.82,1024.45,2027.88,1455.99,1839.02,1980.98,350.28,351.07,34.22,0000 0000 0000 0000 000000
2015-02-17 10:53:42,0.24,7.60,0.00,22.72,27.52,30.17,4.82,28.77,1024.52,2027.93,1455.11,1838.36,1980.15,349.52,350.24,34.25,0000 0000 0000 0000 000000
2015-02-17 10:58:43,0.13,7.61,0.00,23.32,27.52,30.38,4.80,28.52,1024.58,2027.81,1454.30,1837.88,1979.58,349.76,349.70,34.28,0000 0000 0000 0000 000000
2015-02-17 11:03:45,0.15,7.61,0.00,23.51,27.55,30.47,4.80,28.46,1024.62,2027.71,1453.77,1837.08,1978.94,349.63,349.44,34.31,0000 0000 0000 0000 000000
2015-02-17 11:08:46,0.13,7.61,0.00,23.23,27.55,30.65,4.83,28.58,1024.57,2027.49,1452.92,1836.53,1978.09,349.97,350.27,34.34,0000 0000 0000 0000 000000
2015-02-17 11:13:47,0.20,7.62,0.00,23.01,27.56,30.68,4.77,28.48,1024.51,2027.52,1452.05,1835.97,1977.53,349.94,350.17,34.37,0000 0000 0000 0000 000000
2015-02-17 11:18:49,0.25,7.63,0.00,23.05,27.55,30.60,4.87,28.53,1024.48,2027.69,1451.28,1835.22,1977.00,350.16,350.55,34.39,0000 0000 0000 0000 000000
2015-02-17 11:23:50,0.13,7.63,0.00,23.11,27.55,30.45,4.79,28.52,1024.45,2027.93,1450.88,1834.97,1976.33,349.61,350.03,34.42,0000 0000 0000 0000 000000
2015-02-17 11:28:52,0.19,7.64,0.00,22.85,27.54,30.26,4.83,28.58,1024.44,2027.98,1450.11,1834.32,1975.94,350.26,350.80,34.45,0000 0000 0000 0000 000000
2015-02-17 11:33:53,0.17,7.64,0.00,22.72,27.52,30.21,4.81,28.68,1024.43,2027.98,1449.49,1833.95,1975.21,349.60,350.24,34.48,0000 0000 0000 0000 000000
2015-02-17 11:38:54,0.14,7.65,0.00,22.62,27.52,30.18,4.83,28.73,1024.44,2027.95,1448.85,1833.19,1974.70,350.16,350.92,34.51,0000 0000 0000 0000 000000
2015-02-17 11:43:55,0.15,7.65,0.00,22.62,27.52,30.17,4.87,28.68,1024.44,2027.93,1448.04,1832.83,1974.01,350.09,350.92,34.54,0000 0000 0000 0000 000000
2015-02-17 11:48:57,0.21,7.66,0.00,22.72,27.52,30.24,4.86,28.67,1024.45,2027.95,1447.44,1832.09,1973.45,349.60,350.42,34.57,0000 0000 0000 0000 000000
2015-02-17 11:53:58,0.12,7.66,0.00,23.11,27.53,30.33,4.89,28.76,1024.46,2027.90,1446.79,1831.62,1972.92,350.00,350.17,34.60,0000 0000 0000 0000 000000
2015-02-17 11:58:59,0.13,7.67,0.00,23.56,27.55,30.40,4.80,28.48,1024.45,2027.78,1446.05,1831.01,1972.10,350.04,349.72,34.63,0000 0000 0000 0000 000000
2015-02-17 12:04:01,0.18,7.67,0.00,23.36,27.57,30.58,4.87,28.65,1024.44,2027.55,1445.34,1830.39,1971.58,350.28,350.35,34.66,0000 0000 0000 0000 000000
2015-02-17 12:09:02,0.06,7.67,0.00,23.04,27.57,30.77,4.87,28.63,1024.45,2027.24,1444.67,1829.95,1970.99,350.19,350.52,34.69,0000 0000 0000 0000 000000
2015-02-17 12:14:03,0.21,7.68,0.00,23.00,27.57,30.68,4.88,28.62,1024.44,2027.35,1443.95,1829.17,1970.21,349.97,350.38,34.72,0000 0000 0000 0000 000000
2015-02-17 12:19:04,0.11,7.68,0.00,23.12,27.57,30.56,4.81,28.58,1024.44,2027.34,1443.14,1828.96,1969.90,349.80,350.12,34.75,0000 0000 0000 0000 000000
2015-02-17 12:24:06,0.29,7.69,0.00,23.02,27.57,30.41,4.87,28.63,1024.43,2027.67,1442.67,1828.25,1969.16,350.33,350.66,34.78,0000 0000 0000 0000 000000
2015-02-17 12:29:07,0.07,7.69,0.00,22.76,27.55,30.25,4.87,28.63,1024.43,2027.79,1442.03,1827.97,1968.89,349.94,350.56,34.81,0000 0000 0000 0000 000000
2015-02-17 12:34:08,0.25,7.70,0.00,22.64,27.55,30.10,4.82,28.63,1024.43,2027.77,1441.19,1827.19,1968.08,349.80,350.65,34.83,0000 0000 0000 0000 000000
2015-02-17 12:39:10,0.09,7.70,0.00,22.64,27.55,30.17,4.83,28.82,1024.44,2027.58,1440.64,1826.83,1967.59,349.77,350.58,34.86,0000 0000 0000 0000 000000
2015-02-17 12:44:11,0.12,7.71,0.00,22.68,27.55,30.20,4.81,28.77,1024.45,2027.44,1440.01,1826.05,1966.99,350.18,351.05,34.89,0000 0000 0000 0000 000000
2015-02-17 12:49:12,0.09,7.71,0.00,22.95,27.55,30.32,4.84,28.80,1024.45,2027.20,1439.63,1825.87,1966.26,349.94,350.57,34.92,0000 0000 0000 0000 000000
2015-02-17 12:54:14,0.11,7.71,0.00,23.48,27.56,30.44,4.82,28.66,1024.55,2027.08,1438.99,1825.08,1965.88,350.25,350.20,34.95,0000 0000 0000 0000 000000
2015-02-17 12:59:15,0.18,5.40,0.00,23.43,27.58,30.54,4.32,25.08,1024.72,2028.54,2042.16,2276.51,2461.94,310.89,310.75,0.00,0000 0000 0000 0000 000002